Change the Weather History Date:

Saturday, January 7, 2012

  Actual Average Record
Temperature  
Mean Temperature 23 °F 22 °F  
Max Temperature 37 °F 31 °F 50 °F (1956)
Min Temperature 8 °F 12 °F -33 °F (1979)
Degree Days  
Heating Degree Days 42 43  
Month to date heating degree days 234 301  
Since 1 July heating degree days 3501 3755  
Cooling Degree Days 0 0  
Month to date cooling degree days 0 0  
Year to date cooling degree days 0 0  
Moisture  
Dew Point 11 °F    
Average Humidity 61    
Maximum Humidity 84    
Minimum Humidity 38    
Precipitation  
Precipitation 0.00 in 0.01 in 0.36 in (1992)
Month to date precipitation 0.00 0.09  
Year to date precipitation 0.00 0.09  
Sea Level Pressure  
Sea Level Pressure 30.05 in    
Wind  
Wind Speed 7 mph (NW)    
Max Wind Speed 17 mph    
Max Gust Speed 21 mph    
Visibility 10 miles    
Events      
T = Trace of Precipitation, MM = Missing Value Source: NWS Daily Summary

Daily Weather History Graph

Daily Weather History Graph

Search for Another Location

Airport or City:

Trip Planner

Search our weather history database for the weather conditions in past years. The results will help you decide how hot, cold, wet, or windy it might be!

Date:

Astronomy

Jan. 07, 2012 Rise Set
Actual Time 7:36 AM MST 4:53 PM MST
Civil Twilight 7:04 AM MST 5:25 PM MST
Nautical Twilight 6:30 AM MST 5:59 PM MST
Astronomical Twilight 5:56 AM MST 6:33 PM MST
Moon 3:40 PM MST (1/7) 6:10 AM MST (1/7)
Length of Visible Light 10h 20m
Length of Day
9h 17m
Waxing Gibbous, 98% of the Moon is Illuminated
Jan 7
Waxing Gibbous
Jan 9
Full
Jan 16
Last Quarter
Jan 23
New
Jan 30
First Quarter

Hourly Weather History & Observations

Time (MST) Temp. Windchill Dew Point Humidity Pressure Visibility Wind Dir Wind Speed Gust Speed Precip Events Conditions
12:53 AM 28.0 °F 21.7 °F 14.0 °F 56% 29.91 in 10.0 mi SW 5.8 mph - N/A   Partly Cloudy
1:53 AM 30.9 °F 22.8 °F 12.0 °F 46% 29.90 in 10.0 mi WSW 9.2 mph - N/A   Overcast
2:53 AM 30.9 °F 21.7 °F 12.0 °F 46% 29.88 in 10.0 mi WSW 11.5 mph - N/A   Overcast
3:53 AM 30.9 °F 21.7 °F 12.0 °F 46% 29.89 in 10.0 mi WSW 11.5 mph - N/A   Overcast
4:53 AM 30.9 °F 22.2 °F 12.0 °F 46% 29.91 in 10.0 mi WSW 10.4 mph - N/A   Overcast
5:53 AM 28.0 °F 24.2 °F 14.0 °F 56% 29.95 in 10.0 mi WSW 3.5 mph - N/A   Overcast
6:53 AM 28.0 °F 20.8 °F 14.0 °F 56% 29.97 in 10.0 mi NNW 6.9 mph - N/A   Overcast
7:53 AM 26.1 °F 21.9 °F 14.0 °F 60% 29.99 in 10.0 mi North 3.5 mph - N/A   Overcast
8:53 AM 27.0 °F 21.6 °F 15.1 °F 61% 30.02 in 10.0 mi NNE 4.6 mph - N/A   Overcast
9:53 AM 28.0 °F 20.8 °F 10.9 °F 49% 30.01 in 10.0 mi North 6.9 mph - N/A   Overcast
10:53 AM 30.0 °F 24.1 °F 12.0 °F 47% 30.03 in 10.0 mi North 5.8 mph - N/A   Mostly Cloudy
11:53 AM 34.0 °F 29.8 °F 10.9 °F 38% 29.99 in 10.0 mi Variable 4.6 mph - N/A   Partly Cloudy
12:53 PM 34.0 °F 25.0 °F 12.0 °F 40% 29.98 in 10.0 mi North 12.7 mph 20.7 mph N/A   Clear
1:53 PM 33.1 °F 23.9 °F 12.9 °F 43% 29.98 in 10.0 mi North 12.7 mph - N/A   Partly Cloudy
2:53 PM 34.0 °F 26.6 °F 12.0 °F 40% 30.00 in 10.0 mi ENE 9.2 mph - N/A   Clear
3:53 PM 32.0 °F 22.5 °F 10.0 °F 40% 30.04 in 10.0 mi North 12.7 mph - N/A   Clear
4:53 PM 26.1 °F 18.4 °F 7.0 °F 44% 30.10 in 10.0 mi North 6.9 mph - N/A   Clear
5:53 PM 19.9 °F 11.1 °F 9.0 °F 62% 30.19 in 10.0 mi NW 6.9 mph - N/A   Clear
6:53 PM 16.0 °F 5.3 °F 9.0 °F 74% 30.21 in 10.0 mi NW 8.1 mph - N/A   Clear
7:53 PM 15.1 °F 7.7 °F 9.0 °F 77% 30.23 in 10.0 mi North 4.6 mph - N/A   Clear
8:53 PM 12.9 °F 2.6 °F 8.1 °F 81% 30.25 in 10.0 mi NW 6.9 mph - N/A   Clear
9:53 PM 12.0 °F - 6.1 °F 77% 30.25 in 10.0 mi Calm Calm - N/A   Clear
10:53 PM 10.0 °F - 5.0 °F 80% 30.25 in 10.0 mi Calm Calm - N/A   Clear
11:53 PM 12.9 °F - 6.1 °F 74% 30.20 in 10.0 mi Calm Calm - N/A   Clear